Location: Unspecified
(0.0000°N, 0.0000°E)
Time: 20:28:47
(UTC+00:00)

Vanguard 2 Rocket - All Passes

Search period start: 12 February 2016 00:00
Search period end: 22 February 2016 00:00
Orbit: 554 x 3329 km, 32.9° (Epoch: 11 February)

Date Brightness Start Highest point End Pass type
(mag) Time Alt. Az. Time Alt. Az. Time Alt. Az.
12 Feb - 01:50:11 10° WNW 01:51:58 13° NNW 01:53:51 10° N night (unlit)
12 Feb - 08:35:31 10° NNW 08:45:35 25° NE 08:59:20 10° E daylight
12 Feb - 10:47:40 10° NW 11:03:37 67° NE 11:23:58 10° ESE daylight
12 Feb - 13:03:58 10° WNW 13:22:46 59° SW 13:41:20 10° SE daylight
12 Feb - 15:28:04 10° WSW 15:42:54 25° SSW 15:55:03 10° SSE daylight
12 Feb - 22:35:01 10° SSW 22:39:58 27° SSE 22:43:39 10° E visible
13 Feb - 00:49:26 10° W 00:52:57 26° NW 00:56:18 10° NNE night (unlit)
13 Feb - 07:38:02 10° N 07:44:28 16° NNE 07:52:38 10° ENE daylight
13 Feb - 09:48:21 10° NW 10:02:05 50° NE 10:21:12 10° ESE daylight
13 Feb - 12:02:48 10° WNW 12:20:35 75° SW 12:40:42 10° SE daylight
13 Feb - 14:23:24 10° W 14:40:35 34° SSW 14:55:44 10° SSE daylight
13 Feb - 16:54:35 10° SW 17:02:00 14° SSW 17:08:17 10° S daylight
13 Feb - 21:35:35 10° SSW 21:40:25 19° SSE 21:44:03 10° ESE visible
13 Feb - 23:49:22 10° WSW 23:54:14 60° NW 23:58:06 10° NE night (unlit)
14 Feb - 08:49:39 10° NNW 09:00:56 36° NE 09:17:17 10° E daylight
14 Feb - 11:02:32 10° NW 11:18:35 87° NE 11:39:22 10° SE daylight
14 Feb - 13:20:19 10° W 13:38:11 44° SSW 13:55:50 10° SE daylight
14 Feb - 15:47:19 10° WSW 15:59:30 19° SSW 16:09:40 10° SSE daylight
14 Feb - 20:35:49 10° SSW 20:40:24 15° SSE 20:43:58 10° SE visible
14 Feb - 22:49:26 10° SW 22:55:26 63° SSE 22:59:33 10° ENE visible
15 Feb - 01:07:46 10° NW 01:08:10 10° NNW 01:08:34 10° NNW night (unlit)
15 Feb - 07:51:39 10° NNW 08:00:09 23° NE 08:12:06 10° E daylight
15 Feb - 10:02:58 10° NW 10:16:59 68° NE 10:37:12 10° ESE daylight
15 Feb - 12:18:32 10° WNW 12:35:50 57° SW 12:55:22 10° SE daylight
15 Feb - 14:41:34 10° WSW 14:56:48 26° SSW 15:10:16 10° SSE daylight
15 Feb - 17:13:50 10° SSW 17:19:21 12° S 17:24:10 10° SSE daylight
15 Feb - 19:35:24 10° SSW 19:39:50 13° S 19:43:28 10° SE visible
15 Feb - 21:49:27 10° SW 21:56:14 36° SSE 22:00:39 10° E visible
16 Feb - 00:05:24 10° W 00:09:14 23° NW 00:12:29 10° NNE night (unlit)
16 Feb - 06:55:02 10° N 06:59:34 13° NE 07:05:05 10° ENE daylight
16 Feb - 09:04:01 10° NW 09:15:54 50° NE 09:34:07 10° ESE daylight
16 Feb - 11:17:47 10° WNW 11:33:40 72° SW 11:54:17 10° SE daylight
16 Feb - 13:37:29 10° W 13:54:05 33° SSW 14:10:19 10° SSE daylight
16 Feb - 16:06:56 10° SW 16:16:41 16° SSW 16:24:57 10° SSE daylight
16 Feb - 18:33:45 10° SSW 18:38:40 13° S 18:42:46 10° SSE visible
16 Feb - 20:49:13 10° SSW 20:56:32 26° SSE 21:01:24 10° ESE visible
16 Feb - 23:04:40 10° WSW 23:10:33 54° NW 23:14:38 10° NE night (unlit)
17 Feb - 08:05:40 10° NNW 08:15:18 34° NE 08:30:04 10° E daylight
17 Feb - 10:17:52 10° NW 10:31:56 90° ESE 10:52:31 10° SE daylight
17 Feb - 12:34:55 10° W 12:51:27 43° SSW 13:09:53 10° SE daylight
17 Feb - 15:00:37 10° WSW 15:13:40 20° SSW 15:25:11 10° SSE daylight
17 Feb - 17:30:25 10° SSW 17:36:47 13° S 17:42:07 10° SSE daylight
17 Feb - 19:48:34 10° SSW 19:56:19 21° SSE 20:01:41 10° ESE visible
17 Feb - 22:04:05 10° SW 22:11:41 77° SE 22:16:19 10° ENE visible
18 Feb - 07:08:04 10° N 07:15:03 21° NE 07:24:53 10° E daylight
18 Feb - 09:18:38 10° NW 09:30:44 70° NE 09:50:03 10° ESE daylight
18 Feb - 11:33:34 10° WNW 11:49:04 54° SSW 12:08:53 10° SE daylight
18 Feb - 13:55:36 10° WSW 14:10:34 26° SSW 14:25:00 10° SSE daylight
18 Feb - 16:25:30 10° SW 16:34:14 15° S 16:41:35 10° SSE daylight
18 Feb - 18:47:19 10° SSW 18:55:30 18° SSE 19:01:28 10° SE visible
18 Feb - 21:03:24 10° SW 21:12:20 47° SSE 21:17:38 10° ENE visible
18 Feb - 23:20:50 10° W 23:25:26 23° NW 23:28:57 10° NNE night (unlit)
19 Feb - 06:13:01 10° NNE 06:14:56 11° NE 06:17:02 10° NE daylight
19 Feb - 08:20:00 10° NNW 08:30:09 50° NE 08:46:50 10° ESE daylight
19 Feb - 10:33:12 10° WNW 10:47:06 68° SW 11:07:23 10° SE daylight
19 Feb - 12:52:06 10° W 13:07:35 32° SSW 13:24:24 10° SSE daylight
19 Feb - 15:19:48 10° SW 15:31:07 17° S 15:40:59 10° SSE daylight
19 Feb - 17:45:13 10° SSW 17:54:00 17° S 18:00:44 10° SE daylight
19 Feb - 20:02:28 10° SW 20:12:27 34° SSE 20:18:31 10° E visible
19 Feb - 22:19:25 10° WSW 22:26:43 51° NW 22:31:17 10° NE visible
20 Feb - 07:21:56 10° NNW 07:30:03 32° NE 07:42:50 10° E daylight
20 Feb - 09:33:37 10° NW 09:45:42 87° SW 10:05:19 10° SE daylight
20 Feb - 11:50:01 10° W 12:04:55 40° SSW 12:23:23 10° SE daylight
20 Feb - 14:14:25 10° WSW 14:27:42 21° SSW 14:40:13 10° SSE daylight
20 Feb - 16:42:03 10° SSW 16:51:46 16° S 16:59:35 10° SE daylight
20 Feb - 19:01:12 10° SSW 19:11:58 27° SSE 19:18:55 10° ESE visible
20 Feb - 21:18:10 10° SW 21:27:43 88° SE 21:33:07 10° NE visible
20 Feb - 23:39:26 10° NW 23:40:21 10° NW 23:41:13 10° NNW night (unlit)
21 Feb - 06:24:44 10° N 06:30:16 18° NE 06:37:52 10° E daylight
21 Feb - 08:34:39 10° NW 08:44:56 71° NE 09:02:42 10° ESE daylight
21 Feb - 10:49:04 10° WNW 11:02:40 50° SSW 11:21:56 10° SE daylight
21 Feb - 13:10:10 10° WSW 13:24:20 25° SSW 13:39:12 10° SSE daylight
21 Feb - 15:37:53 10° SW 15:48:49 17° S 15:58:06 10° SE daylight
21 Feb - 17:59:28 10° SSW 18:10:50 23° SSE 18:18:43 10° ESE daylight
21 Feb - 20:16:51 10° SW 20:28:11 58° SSE 20:34:29 10° ENE visible
21 Feb - 22:35:42 10° W 22:41:31 25° NW 22:45:35 10° NNE visible
